QLK1984 YWLM-YBBN

Flight info

Callsign QLK1984
Flight time 0h 55m
Altitude 39000
Route WLM DCT UBSON DCT NICLA DCT BANDA H252 BN
Aircraft E190/M-SDE3GILORVW/S

Departure

Time 2026-04-22 10:32
Airport Newcastle Airport (YWLM)

Arrival

Time 2026-04-22 11:27
Airport Brisbane International Airport (YBBN)
Time Latitude Longitude Altitude Speed Heading
2026-04-22 10:12 -32.80453 151.84128 33 ft 0 kts 258°
2026-04-22 10:24 -32.80452 151.84126 34 ft 0 kts 283°
2026-04-22 10:24 -32.80449 151.84123 34 ft 0 kts 328°
2026-04-22 10:24 -32.80440 151.84125 34 ft 2 kts 30°
2026-04-22 10:24 -32.80426 151.84135 34 ft 2 kts 29°
2026-04-22 10:25 -32.80403 151.84142 34 ft 4 kts 349°
2026-04-22 10:25 -32.80377 151.84117 34 ft 5 kts 312°
2026-04-22 10:25 -32.80347 151.84076 34 ft 6 kts 310°
2026-04-22 10:25 -32.80313 151.84029 34 ft 8 kts 311°
2026-04-22 10:26 -32.80272 151.83972 34 ft 10 kts 310°
2026-04-22 10:26 -32.80222 151.83900 34 ft 12 kts 310°
2026-04-22 10:26 -32.80160 151.83827 34 ft 12 kts 333°
2026-04-22 10:26 -32.80072 151.83827 34 ft 13 kts 10°
2026-04-22 10:27 -32.79984 151.83844 34 ft 12 kts
2026-04-22 10:27 -32.79891 151.83862 34 ft 14 kts 12°
2026-04-22 10:27 -32.79806 151.83943 34 ft 16 kts 54°
2026-04-22 10:27 -32.79734 151.83977 34 ft 13 kts 311°
2026-04-22 10:28 -32.79668 151.83884 34 ft 16 kts 310°
2026-04-22 10:28 -32.79592 151.83780 34 ft 17 kts 310°
2026-04-22 10:28 -32.79512 151.83667 34 ft 18 kts 310°
2026-04-22 10:28 -32.79426 151.83548 34 ft 19 kts 310°
2026-04-22 10:29 -32.79335 151.83420 34 ft 20 kts 310°
2026-04-22 10:29 -32.79240 151.83287 34 ft 21 kts 310°
2026-04-22 10:29 -32.79153 151.83166 34 ft 13 kts 310°
2026-04-22 10:29 -32.79127 151.83098 34 ft 6 kts 256°
2026-04-22 10:30 -32.79134 151.83081 34 ft 0 kts 232°
2026-04-22 10:30 -32.79150 151.83063 34 ft 5 kts 220°
2026-04-22 10:30 -32.79196 151.83019 34 ft 10 kts 220°
2026-04-22 10:31 -32.79230 151.82988 34 ft 4 kts 188°
2026-04-22 10:31 -32.79263 151.83025 34 ft 12 kts 129°
2026-04-22 10:31 -32.79503 151.83359 34 ft 99 kts 130°
2026-04-22 10:31 -32.80122 151.84233 105 ft 165 kts 131°
2026-04-22 10:32 -32.80833 151.85324 910 ft 175 kts 118°
2026-04-22 10:32 -32.80913 151.86705 1919 ft 182 kts 76°
2026-04-22 10:32 -32.80102 151.87967 2533 ft 210 kts 44°
2026-04-22 10:32 -32.78984 151.89200 3235 ft 228 kts 50°
2026-04-22 10:33 -32.77884 151.90649 4035 ft 243 kts 53°
2026-04-22 10:33 -32.76810 151.92226 4976 ft 251 kts 55°
2026-04-22 10:33 -32.75762 151.93851 6043 ft 253 kts 55°
2026-04-22 10:33 -32.74398 151.95102 7091 ft 261 kts 21°
2026-04-22 10:34 -32.72557 151.95250 7860 ft 278 kts 350°
2026-04-22 10:34 -32.70633 151.94690 8570 ft 292 kts 348°
2026-04-22 10:34 -32.68646 151.94113 9383 ft 302 kts 348°
2026-04-22 10:34 -32.66578 151.93526 10254 ft 307 kts 349°
2026-04-22 10:35 -32.64514 151.92946 11128 ft 312 kts 349°
2026-04-22 10:35 -32.62362 151.92343 11892 ft 321 kts 349°
2026-04-22 10:35 -32.60177 151.91734 12556 ft 333 kts 349°
2026-04-22 10:35 -32.57884 151.91095 13258 ft 343 kts 349°
2026-04-22 10:36 -32.55532 151.90440 14052 ft 349 kts 349°
2026-04-22 10:36 -32.53153 151.89778 14878 ft 353 kts 349°
2026-04-22 10:36 -32.50750 151.89110 15678 ft 358 kts 349°
2026-04-22 10:36 -32.48344 151.88441 16463 ft 362 kts 349°
2026-04-22 10:37 -32.45862 151.87752 17218 ft 367 kts 349°
2026-04-22 10:37 -32.40841 151.87802 18632 ft 367 kts 20°
2026-04-22 10:37 -32.38402 151.88657 19283 ft 373 kts 20°
2026-04-22 10:38 -32.35901 151.89542 19930 ft 379 kts 20°
2026-04-22 10:38 -32.33347 151.90448 20537 ft 386 kts 19°
2026-04-22 10:38 -32.30744 151.91371 21145 ft 393 kts 19°
2026-04-22 10:38 -32.28131 151.92299 21759 ft 398 kts 19°
2026-04-22 10:39 -32.25464 151.93243 22361 ft 403 kts 19°
2026-04-22 10:39 -32.22737 151.94211 22951 ft 409 kts 19°
2026-04-22 10:39 -32.20006 151.95178 23533 ft 413 kts 18°
2026-04-22 10:39 -32.17248 151.96153 24108 ft 418 kts 18°
2026-04-22 10:40 -32.14465 151.97139 24666 ft 423 kts 18°
2026-04-22 10:40 -32.11613 151.98146 25262 ft 427 kts 18°
2026-04-22 10:40 -32.08711 151.99171 25824 ft 432 kts 17°
2026-04-22 10:40 -32.05838 152.00186 26348 ft 437 kts 17°
2026-04-22 10:41 -32.02977 152.01401 26861 ft 441 kts 22°
2026-04-22 10:41 -32.00094 152.02748 27408 ft 444 kts 22°
2026-04-22 10:41 -31.97205 152.04083 27899 ft 449 kts 21°
2026-04-22 10:41 -31.94279 152.05431 28382 ft 454 kts 21°
2026-04-22 10:42 -31.91331 152.06787 28880 ft 458 kts 21°
2026-04-22 10:42 -31.88314 152.08173 29389 ft 461 kts 21°
2026-04-22 10:42 -31.85282 152.09564 29857 ft 465 kts 20°
2026-04-22 10:42 -31.82193 152.10982 30345 ft 468 kts 20°
2026-04-22 10:43 -31.79152 152.12376 30804 ft 472 kts 20°
2026-04-22 10:43 -31.76089 152.13780 31240 ft 475 kts 20°
2026-04-22 10:43 -31.73002 152.15193 31704 ft 478 kts 20°
2026-04-22 10:43 -31.69900 152.16612 32162 ft 480 kts 20°
2026-04-22 10:44 -31.66752 152.18051 32699 ft 481 kts 19°
2026-04-22 10:44 -31.63602 152.19490 33245 ft 480 kts 19°
2026-04-22 10:44 -31.60502 152.20906 33842 ft 479 kts 19°
2026-04-22 10:44 -31.57403 152.22319 34411 ft 478 kts 19°
2026-04-22 10:45 -31.54288 152.23738 35055 ft 476 kts 19°
2026-04-22 10:45 -31.51236 152.25130 35703 ft 473 kts 18°
2026-04-22 10:45 -31.48130 152.26543 36335 ft 471 kts 18°
2026-04-22 10:45 -31.45059 152.27939 36919 ft 469 kts 18°
2026-04-22 10:46 -31.42047 152.29308 37464 ft 468 kts 18°
2026-04-22 10:46 -31.38998 152.30693 37940 ft 468 kts 18°
2026-04-22 10:46 -31.35980 152.32063 38419 ft 468 kts 17°
2026-04-22 10:46 -31.32911 152.33455 38912 ft 467 kts 17°
2026-04-22 10:47 -31.29879 152.34830 39291 ft 459 kts 17°
2026-04-22 10:47 -31.23826 152.37569 39323 ft 474 kts 17°
2026-04-22 10:48 -31.17552 152.40405 39323 ft 491 kts 17°
2026-04-22 10:48 -31.11107 152.43317 39312 ft 494 kts 17°
2026-04-22 10:49 -31.04722 152.46196 39312 ft 491 kts 17°
2026-04-22 10:49 -30.98342 152.49068 39315 ft 491 kts 17°
2026-04-22 10:50 -30.91939 152.51945 39309 ft 493 kts 17°
2026-04-22 10:50 -30.85572 152.54805 39308 ft 491 kts 17°
2026-04-22 10:51 -30.79159 152.57658 39308 ft 489 kts 13°
2026-04-22 10:51 -30.72630 152.59988 39303 ft 487 kts 12°
2026-04-22 10:52 -30.66139 152.62338 39306 ft 488 kts 12°
2026-04-22 10:52 -30.59595 152.64710 39307 ft 488 kts 12°
2026-04-22 10:53 -30.53115 152.67055 39298 ft 488 kts 12°
2026-04-22 10:53 -30.46603 152.69408 39291 ft 488 kts 12°
2026-04-22 10:54 -30.40128 152.71744 39290 ft 487 kts 12°
2026-04-22 10:54 -30.33658 152.74074 39296 ft 488 kts 12°
2026-04-22 10:55 -30.27173 152.76408 39300 ft 486 kts 12°
2026-04-22 10:55 -30.20662 152.78748 39294 ft 488 kts 12°
2026-04-22 10:56 -30.14236 152.81053 39292 ft 486 kts 11°
2026-04-22 10:56 -30.07788 152.83365 39289 ft 483 kts 11°
2026-04-22 10:57 -30.01332 152.85673 39293 ft 485 kts 11°
2026-04-22 10:57 -29.94896 152.87973 39281 ft 487 kts 11°
2026-04-22 10:58 -29.88424 152.90283 39280 ft 485 kts 11°
2026-04-22 10:58 -29.81971 152.92583 39274 ft 484 kts 11°
2026-04-22 10:59 -29.75534 152.94873 39264 ft 485 kts 11°
2026-04-22 10:59 -29.69086 152.97165 39270 ft 484 kts 11°
2026-04-22 11:00 -29.62621 152.99460 39261 ft 483 kts 11°
2026-04-22 11:00 -29.56221 153.01727 39257 ft 482 kts 11°
2026-04-22 11:01 -29.49791 153.04005 39241 ft 469 kts 10°
2026-04-22 11:01 -29.43606 153.06189 39254 ft 464 kts 10°
2026-04-22 11:02 -29.37407 153.08377 38630 ft 470 kts 11°
2026-04-22 11:02 -29.34298 153.09474 38121 ft 467 kts 10°
2026-04-22 11:02 -29.31148 153.10584 37600 ft 467 kts 11°
2026-04-22 11:02 -29.28085 153.11664 37091 ft 465 kts 11°
2026-04-22 11:03 -29.24954 153.12766 36568 ft 467 kts 11°
2026-04-22 11:03 -29.21827 153.13866 36050 ft 468 kts 11°
2026-04-22 11:03 -29.18697 153.14967 35529 ft 469 kts 11°
2026-04-22 11:03 -29.15573 153.16066 35013 ft 469 kts 11°
2026-04-22 11:04 -29.12426 153.17171 34493 ft 472 kts 11°
2026-04-22 11:04 -29.09264 153.18282 33965 ft 473 kts 12°
2026-04-22 11:04 -29.06134 153.19380 33454 ft 472 kts 12°
2026-04-22 11:04 -29.02958 153.20494 32929 ft 475 kts 12°
2026-04-22 11:05 -28.99809 153.21597 32406 ft 476 kts 12°
2026-04-22 11:05 -28.96652 153.22702 31880 ft 477 kts 12°
2026-04-22 11:05 -28.93449 153.23824 31347 ft 479 kts 12°
2026-04-22 11:05 -28.90267 153.24937 30815 ft 478 kts 12°
2026-04-22 11:06 -28.87109 153.26041 30280 ft 476 kts 13°
2026-04-22 11:06 -28.83961 153.27141 29759 ft 471 kts 13°
2026-04-22 11:06 -28.80825 153.28236 29233 ft 467 kts 13°
2026-04-22 11:06 -28.77711 153.29323 28720 ft 464 kts 13°
2026-04-22 11:07 -28.74670 153.30382 28213 ft 460 kts 13°
2026-04-22 11:07 -28.71589 153.31456 27706 ft 456 kts 13°
2026-04-22 11:07 -28.68567 153.32509 27207 ft 454 kts 13°
2026-04-22 11:07 -28.65542 153.33560 26698 ft 451 kts 14°
2026-04-22 11:08 -28.62572 153.34595 26204 ft 447 kts 14°
2026-04-22 11:08 -28.59596 153.35628 25708 ft 444 kts 14°
2026-04-22 11:08 -28.56655 153.36650 25217 ft 440 kts 14°
2026-04-22 11:08 -28.53758 153.37656 24738 ft 437 kts 14°
2026-04-22 11:09 -28.50857 153.38663 24259 ft 434 kts 14°
2026-04-22 11:09 -28.47967 153.39665 23772 ft 431 kts 14°
2026-04-22 11:09 -28.45132 153.40648 23290 ft 429 kts 14°
2026-04-22 11:09 -28.42265 153.41641 22819 ft 425 kts 14°
2026-04-22 11:10 -28.39449 153.42615 22350 ft 421 kts 14°
2026-04-22 11:10 -28.36653 153.43582 21883 ft 418 kts 14°
2026-04-22 11:10 -28.33880 153.44542 21417 ft 415 kts 14°
2026-04-22 11:10 -28.31136 153.45491 20958 ft 411 kts 15°
2026-04-22 11:11 -28.28390 153.46439 20493 ft 409 kts 15°
2026-04-22 11:11 -28.25688 153.47372 20049 ft 406 kts 15°
2026-04-22 11:11 -28.23007 153.48297 19605 ft 403 kts 15°
2026-04-22 11:11 -28.20324 153.49222 19157 ft 400 kts 15°
2026-04-22 11:12 -28.17658 153.50049 18705 ft 395 kts
2026-04-22 11:12 -28.14969 153.49947 18303 ft 387 kts 348°
2026-04-22 11:12 -28.12304 153.49438 17856 ft 384 kts 347°
2026-04-22 11:12 -28.09707 153.48914 17440 ft 381 kts 347°
2026-04-22 11:13 -28.07096 153.48377 17026 ft 378 kts 347°
2026-04-22 11:13 -28.04526 153.47845 16628 ft 375 kts 347°
2026-04-22 11:13 -28.01950 153.47313 16171 ft 372 kts 347°
2026-04-22 11:13 -27.99402 153.46785 15635 ft 372 kts 347°
2026-04-22 11:14 -27.96891 153.46266 15117 ft 364 kts 348°
2026-04-22 11:14 -27.94431 153.45756 14700 ft 358 kts 348°
2026-04-22 11:14 -27.91995 153.45253 14308 ft 355 kts 348°
2026-04-22 11:14 -27.89556 153.44748 13914 ft 354 kts 348°
2026-04-22 11:15 -27.87123 153.44246 13512 ft 352 kts 348°
2026-04-22 11:15 -27.84706 153.43747 13136 ft 351 kts 348°
2026-04-22 11:15 -27.82312 153.43254 12722 ft 349 kts 348°
2026-04-22 11:15 -27.79907 153.42757 12342 ft 347 kts 348°
2026-04-22 11:16 -27.77536 153.42268 11967 ft 346 kts 348°
2026-04-22 11:16 -27.75137 153.41774 11566 ft 345 kts 348°
2026-04-22 11:16 -27.72790 153.41290 11189 ft 343 kts 348°
2026-04-22 11:16 -27.70435 153.40805 10828 ft 342 kts 348°
2026-04-22 11:17 -27.68101 153.40324 10429 ft 341 kts 348°
2026-04-22 11:17 -27.65775 153.39847 10063 ft 339 kts 349°
2026-04-22 11:17 -27.63464 153.39365 9685 ft 337 kts 348°
2026-04-22 11:17 -27.61177 153.38855 9322 ft 335 kts 348°
2026-04-22 11:18 -27.58879 153.38344 8945 ft 334 kts 348°
2026-04-22 11:18 -27.56603 153.37837 8591 ft 327 kts 348°
2026-04-22 11:18 -27.54412 153.37350 8232 ft 317 kts 348°
2026-04-22 11:18 -27.52276 153.36876 7888 ft 307 kts 348°
2026-04-22 11:19 -27.50225 153.36420 7538 ft 298 kts 348°
2026-04-22 11:19 -27.48214 153.35974 7208 ft 289 kts 348°
2026-04-22 11:19 -27.46255 153.35539 6927 ft 280 kts 348°
2026-04-22 11:19 -27.44372 153.35120 6663 ft 272 kts 348°
2026-04-22 11:20 -27.42554 153.34717 6418 ft 263 kts 348°
2026-04-22 11:20 -27.40804 153.34328 6170 ft 253 kts 348°
2026-04-22 11:20 -27.39096 153.33949 5843 ft 246 kts 348°
2026-04-22 11:20 -27.37429 153.33578 5552 ft 239 kts 348°
2026-04-22 11:21 -27.35825 153.33225 5293 ft 232 kts 350°
2026-04-22 11:21 -27.34250 153.32919 5045 ft 225 kts 351°
2026-04-22 11:21 -27.32722 153.32628 4791 ft 219 kts 351°
2026-04-22 11:21 -27.31234 153.32344 4579 ft 214 kts 351°
2026-04-22 11:22 -27.29754 153.32062 4326 ft 215 kts 352°
2026-04-22 11:22 -27.28302 153.31677 4074 ft 217 kts 332°
2026-04-22 11:22 -27.27294 153.30484 3843 ft 212 kts 288°
2026-04-22 11:22 -27.26975 153.28905 3621 ft 208 kts 275°
2026-04-22 11:23 -27.26724 153.27298 3364 ft 208 kts 275°
2026-04-22 11:23 -27.26615 153.25722 3123 ft 192 kts 251°
2026-04-22 11:23 -27.27156 153.24468 2968 ft 172 kts 231°
2026-04-22 11:23 -27.27770 153.23349 2715 ft 169 kts 230°
2026-04-22 11:24 -27.28392 153.22231 2494 ft 168 kts 230°
2026-04-22 11:24 -27.29019 153.21109 2277 ft 168 kts 230°
2026-04-22 11:24 -27.29641 153.20001 2053 ft 166 kts 230°
2026-04-22 11:24 -27.30238 153.18936 1822 ft 158 kts 230°
2026-04-22 11:25 -27.30868 153.17979 1602 ft 145 kts 216°
2026-04-22 11:25 -27.31596 153.17227 1439 ft 138 kts 215°
2026-04-22 11:25 -27.32299 153.16507 1263 ft 133 kts 215°
2026-04-22 11:25 -27.33056 153.15982 1121 ft 128 kts 201°
2026-04-22 11:26 -27.33856 153.15520 983 ft 128 kts 202°
2026-04-22 11:26 -27.34658 153.15057 734 ft 132 kts 203°
2026-04-22 11:26 -27.35469 153.14586 449 ft 130 kts 205°
2026-04-22 11:26 -27.36291 153.14104 308 ft 131 kts 204°
2026-04-22 11:27 -27.37091 153.13643 141 ft 128 kts 205°
2026-04-22 11:27 -27.37895 153.13185 19 ft 129 kts 206°
2026-04-22 11:27 -27.38574 153.12796 19 ft 83 kts 207°
2026-04-22 11:27 -27.38868 153.12610 20 ft 38 kts 216°
2026-04-22 11:28 -27.39036 153.12402 21 ft 28 kts 238°
2026-04-22 11:28 -27.39132 153.12225 21 ft 16 kts 261°
2026-04-22 11:28 -27.39072 153.12151 21 ft 15 kts 13°
2026-04-22 11:28 -27.38976 153.12203 21 ft 15 kts 26°
2026-04-22 11:29 -27.38875 153.12260 21 ft 15 kts 27°
2026-04-22 11:29 -27.38801 153.12268 21 ft 10 kts 298°
2026-04-22 11:29 -27.38742 153.12253 21 ft 7 kts 19°
2026-04-22 11:29 -27.38694 153.12231 21 ft 7 kts 321°
2026-04-22 11:30 -27.38683 153.12222 21 ft 0 kts 322°